2E0SQA Weather Reports


time (UTC)temp
C
wind
direction
speed
KPH
gust
KPH
rain 1hr
cm
rain 24hr
cm
rain mn
cm
humidity
%
barometer
mb
20260505200450 10 102 0.0 3.2 0.00 0.00 0.00 78 1014.3
20260505195943 10 47 0.0 1.6 0.00 0.00 0.00 78 1014.2
20260505195437 10 71 0.0 1.6 0.00 0.00 0.00 78 1014.2
20260505195149 10 78 0.0 0.0 0.00 0.00 0.00 78 1014.1
20260505194425 10 26 0.0 0.0 0.00 0.00 0.00 78 1014.1
20260505194141 10 78 0.0 0.0 0.00 0.00 0.00 78 1014.0
20260505193414 10 82 0.0 0.0 0.00 0.00 0.00 78 1014.0
20260505192908 10 12 0.0 0.0 0.00 0.00 0.00 79 1013.9
20260505192402 10 80 0.0 0.0 0.00 0.00 0.00 79 1013.8
20260505191856 10 78 0.0 0.0 0.00 0.00 0.00 78 1013.8
20260505191349 10 94 0.0 0.0 0.00 0.00 0.00 78 1013.8
20260505191112 11 47 0.0 1.6 0.00 0.00 0.00 77 1013.8
20260505190345 11 71 0.0 1.6 0.00 0.00 0.00 77 1013.7
20260505185845 11 76 0.0 0.0 0.00 0.00 0.00 75 1013.7
20260505185345 11 49 0.0 0.0 0.00 0.00 0.00 75 1013.7
20260505184843 11 39 0.0 0.0 0.00 0.00 0.00 74 1013.7
20260505184343 11 312 0.0 0.0 0.00 0.00 0.00 74 1013.7
20260505184333 11 71 0.0 1.6 0.00 0.00 0.00 73 1013.6
20260505183341 11 328 0.0 0.0 0.00 0.00 0.00 72 1013.6
20260505182838 11 304 0.0 0.0 0.00 0.00 0.00 72 1013.6
20260505182339 11 25 0.0 0.0 0.00 0.00 0.00 72 1013.6
20260505181840 11 297 0.0 1.6 0.00 0.00 0.00 72 1013.6
20260505181336 11 50 0.0 1.6 0.00 0.00 0.00 71 1013.5
20260505180837 11 252 0.0 1.6 0.00 0.00 0.00 71 1013.6
20260505180339 11 27 0.0 1.6 0.00 0.00 0.00 71 1013.5
20260505175835 11 22 0.0 0.0 0.00 0.00 0.00 71 1013.4
20260505175336 11 346 0.0 1.6 0.00 0.00 0.00 71 1013.4
20260505174835 11 327 0.0 1.6 0.00 0.00 0.00 71 1013.4
20260505174333 11 295 0.0 1.6 0.00 0.00 0.00 70 1013.5
20260505173831 11 326 0.0 1.6 0.00 0.00 0.00 70 1013.4
20260505173325 12 294 0.0 1.6 0.00 0.00 0.00 70 1013.4
20260505173044 12 347 0.0 0.0 0.00 0.00 0.00 71 1013.4
20260505172314 12 259 0.0 1.6 0.00 0.00 0.00 71 1013.5
20260505171806 12 301 0.0 1.6 0.00 0.00 0.00 71 1013.5
20260505171300 12 300 0.0 0.0 0.00 0.00 0.00 70 1013.6
20260505170754 12 308 0.0 0.0 0.00 0.00 0.00 69 1013.5
20260505170249 12 322 0.0 0.0 0.00 0.00 0.00 69 1013.6
20260505165742 12 71 0.0 0.0 0.00 0.00 0.00 68 1013.5
20260505165718 12 329 0.0 0.0 0.00 0.00 0.00 66 1013.5
20260505164731 13 283 0.0 0.0 0.00 0.00 0.00 66 1013.5
20260505164441 13 280 0.0 0.0 0.00 0.00 0.00 65 1013.4
20260505163717 13 243 0.0 0.0 0.00 0.00 0.00 64 1013.4
20260505163215 13 100 0.0 0.0 0.00 0.00 0.00 63 1013.5
20260505162707 13 203 0.0 0.0 0.00 0.00 0.00 62 1013.5
20260505162201 13 81 0.0 0.0 0.00 0.00 0.00 63 1013.4
20260505161656 14 141 0.0 0.0 0.00 0.00 0.00 62 1013.4
20260505161150 14 58 0.0 0.0 0.00 0.00 0.00 62 1013.4
20260505160642 13 250 0.0 0.0 0.00 0.00 0.00 63 1013.3
20260505160138 13 149 0.0 0.0 0.00 0.00 0.00 62 1013.4
20260505153101 13 214 0.0 0.0 0.00 0.00 0.00 68 1013.4
20260505152821 13 134 0.0 0.0 0.00 0.00 0.00 69 1013.4
20260505152528 12 248 0.0 0.0 0.00 0.00 0.00 69 1013.5
20260505151543 12 323 0.0 0.0 0.00 0.00 0.00 68 1013.5
20260505151519 12 23 0.0 0.0 0.00 0.00 0.00 68 1013.6
20260505150604 12 240 0.0 0.0 0.00 0.00 0.00 69 1013.6
20260505150530 12 208 0.0 0.0 0.00 0.00 0.00 69 1013.6
20260505140639 12 297 0.0 1.6 0.00 0.00 0.00 70 1013.7
20260505130304 11 322 0.0 0.0 0.00 0.00 0.00 74 1013.9
20260505124745 11 57 0.0 0.0 0.00 0.00 0.00 74 1013.9
20260505124238 11 321 0.0 0.0 0.00 0.00 0.00 75 1013.9
20260505123733 11 27 0.0 0.0 0.00 0.00 0.00 75 1013.8
20260505123227 11 288 0.0 0.0 0.00 0.00 0.00 76 1013.8
20260505122939 11 220 0.0 0.0 0.00 0.00 0.00 75 1013.9
20260505122446 11 143 0.0 0.0 0.00 0.00 0.00 75 1013.9
20260505121708 11 127 0.0 0.0 0.00 0.00 0.00 73 1013.8
20260505121202 11 302 0.0 0.0 0.00 0.00 0.00 73 1013.9
20260505120658 11 65 0.0 0.0 0.00 0.00 0.00 72 1014.0
20260505120151 11 308 0.0 0.0 0.00 0.00 0.00 71 1014.0
20260505115647 11 308 0.0 0.0 0.00 0.00 0.00 72 1014.0
20260505115138 11 31 0.0 0.0 0.00 0.00 0.00 72 1014.0
20260505114632 11 69 0.0 0.0 0.00 0.00 0.00 73 1014.0
20260505114354 11 79 0.0 0.0 0.00 0.00 0.00 73 1014.1
20260505113846 11 65 0.0 0.0 0.00 0.00 0.00 73 1014.1
20260505113114 11 56 0.0 1.6 0.00 0.00 0.00 73 1014.2
20260505112608 11 66 0.0 1.6 0.00 0.00 0.00 72 1014.2
20260505112104 12 98 0.0 1.6 0.00 0.00 0.00 71 1014.1
20260505111557 12 322 0.0 1.6 0.00 0.00 0.00 69 1014.1
20260505111318 12 322 0.0 0.0 0.00 0.00 0.00 70 1014.0
20260505110544 11 309 0.0 0.0 0.00 0.00 0.00 71 1014.0
20260505110108 11 311 0.0 0.0 0.00 0.00 0.00 73 1014.1
20260505101951 10 294 0.0 1.6 0.00 0.00 0.00 77 1014.3
20260505101445 11 315 0.0 1.6 0.00 0.00 0.00 75 1014.3
20260505100937 11 297 0.0 0.0 0.00 0.00 0.00 73 1014.3
20260505100433 11 297 0.0 0.0 0.00 0.00 0.00 71 1014.2
20260505100156 12 271 0.0 0.0 0.00 0.00 0.00 70 1014.1
20260505095421 12 43 0.0 0.0 0.00 0.00 0.00 70 1014.1
20260505094914 12 33 0.0 0.0 0.00 0.00 0.00 72 1014.1
20260505094407 11 50 0.0 0.0 0.00 0.00 0.00 74 1014.1
20260505094127 11 269 0.0 0.0 0.00 0.00 0.00 74 1014.2
20260505093356 11 304 0.0 0.0 0.00 0.00 0.00 75 1014.2
20260505092850 11 99 0.0 0.0 0.00 0.00 0.00 77 1014.2
20260505092344 11 310 0.0 0.0 0.00 0.00 0.00 77 1014.2
20260505092057 10 329 0.0 0.0 0.00 0.00 0.00 78 1014.3
20260505091333 10 19 0.0 0.0 0.00 0.00 0.00 78 1014.3
20260505090825 10 59 0.0 0.0 0.00 0.00 0.00 80 1014.3
20260505090320 10 34 0.0 0.0 0.00 0.00 0.00 81 1014.3
20260505085814 10 61 0.0 0.0 0.00 0.00 0.00 82 1014.3
20260505085309 10 37 0.0 0.0 0.00 0.00 0.00 82 1014.3
20260505084804 10 60 0.0 0.0 0.00 0.00 0.00 83 1014.3
20260505084257 10 56 0.0 0.0 0.00 0.00 0.00 83 1014.3
20260505083751 10 61 0.0 0.0 0.00 0.00 0.00 84 1014.3
20260505083246 10 33 0.0 1.6 0.00 0.00 0.00 85 1014.3
20260505083000 10 300 0.0 1.6 0.00 0.00 0.00 85 1014.3
20260505082231 10 323 0.0 0.0 0.00 0.00 0.00 86 1014.4
20260505081727 10 308 0.0 0.0 0.00 0.00 0.00 86 1014.4
20260505081221 10 50 0.0 0.0 0.00 0.00 0.00 86 1014.4
20260505080715 10 277 0.0 0.0 0.00 0.00 0.00 86 1014.3
20260505080208 10 285 0.0 0.0 0.00 0.00 0.00 86 1014.4
20260505075703 10 217 0.0 0.0 0.00 0.00 0.00 86 1014.3
20260505075157 10 214 0.0 0.0 0.00 0.00 0.00 86 1014.3
20260505075128 10 11 0.0 0.0 0.00 0.00 0.00 86 1014.3
20260505074146 10 325 0.0 0.0 0.00 0.00 0.00 86 1014.4
20260505073638 10 321 0.0 0.0 0.00 0.00 0.00 86 1014.3
20260505073133 10 321 0.0 0.0 0.00 0.00 0.00 86 1014.2
20260505072850 10 91 0.0 0.0 0.00 0.00 0.00 86 1014.3
20260505072121 10 51 0.0 0.0 0.00 0.00 0.00 86 1014.4
20260505071615 10 49 0.0 0.0 0.00 0.00 0.00 86 1014.3
20260505071108 9 235 0.0 0.0 0.00 0.00 0.00 87 1014.3
20260505070827 9 236 0.0 0.0 0.00 0.00 0.00 87 1014.3
20260505070333 9 300 0.0 0.0 0.00 0.00 0.00 87 1014.3
20260505065552 9 287 0.0 0.0 0.00 0.00 0.00 87 1014.3
20260505065046 9 283 0.0 0.0 0.00 0.00 0.00 87 1014.3
20260505064539 9 297 0.0 0.0 0.00 0.00 0.00 87 1014.5
20260505064034 9 88 0.0 0.0 0.00 0.00 0.00 87 1014.5
20260505063526 8 288 0.0 0.0 0.00 0.00 0.00 87 1014.5
20260505063242 8 89 0.0 0.0 0.00 0.00 0.00 87 1014.5
20260505062519 8 323 0.0 0.0 0.00 0.00 0.00 86 1014.5
20260505062019 8 70 0.0 0.0 0.00 0.00 0.00 86 1014.4
20260505061518 8 56 0.0 0.0 0.00 0.00 0.00 87 1014.5
20260505061238 8 65 0.0 0.0 0.00 0.00 0.00 87 1014.5
20260505060516 8 290 0.0 0.0 0.00 0.00 0.00 87 1014.5
20260505060105 8 287 0.0 0.0 0.00 0.00 0.00 87 1014.4
20260505055517 8 233 0.0 0.0 0.00 0.00 0.00 88 1014.4
20260505055015 8 224 0.0 0.0 0.00 0.00 0.00 89 1014.5
20260505054515 8 281 0.0 0.0 0.00 0.00 0.00 90 1014.4
20260505054010 8 326 0.0 0.0 0.00 0.00 0.00 90 1014.4
20260505053739 8 240 0.0 0.0 0.00 0.00 0.00 91 1014.4
20260505053012 7 323 0.0 0.0 0.00 0.00 0.00 91 1014.3
20260505052509 7 300 0.0 0.0 0.00 0.00 0.00 92 1014.3
20260505052009 7 224 0.0 0.0 0.00 0.00 0.00 92 1014.3
20260505051509 7 224 0.0 0.0 0.00 0.00 0.00 93 1014.3
20260505051010 7 298 0.0 0.0 0.00 0.00 0.00 93 1014.3
20260505050726 7 156 0.0 0.0 0.00 0.00 0.00 93 1014.2
20260505050105 7 148 0.0 0.0 0.00 0.00 0.00 93 1014.2
20260505041444 6 238 0.0 0.0 0.00 0.00 0.00 94 1013.9
20260505040946 6 240 0.0 0.0 0.00 0.00 0.00 94 1013.9
20260505040714 6 278 0.0 0.0 0.00 0.00 0.00 94 1013.9
20260505040544 6 302 0.0 0.0 0.00 0.00 0.00 94 1013.9
20260505035442 7 276 0.0 0.0 0.00 0.00 0.00 94 1013.9
20260505034942 7 239 0.0 0.0 0.00 0.00 0.00 94 1013.9
20260505034441 7 262 0.0 0.0 0.00 0.00 0.00 94 1013.9
20260505033943 7 39 0.0 0.0 0.00 0.00 0.00 94 1014.0
20260505033441 7 258 0.0 0.0 0.00 0.00 0.00 94 1013.9
20260505032941 7 132 0.0 0.0 0.00 0.00 0.00 94 1013.9
20260505032439 7 283 0.0 0.0 0.00 0.00 0.00 94 1013.9
20260505031938 7 34 0.0 0.0 0.00 0.00 0.00 94 1013.9
20260505031430 7 304 0.0 0.0 0.00 0.00 0.00 94 1014.0
20260505030926 7 267 0.0 0.0 0.00 0.00 0.00 94 1014.0
20260505030426 7 314 0.0 0.0 0.00 0.00 0.00 94 1014.0
20260505025925 7 351 0.0 0.0 0.00 0.00 0.00 95 1014.0
20260505025423 7 295 0.0 0.0 0.00 0.00 0.00 95 1014.1
20260505024925 7 319 0.0 0.0 0.00 0.00 0.00 95 1014.0
20260505024421 7 340 0.0 0.0 0.00 0.00 0.00 95 1014.1
20260505023922 6 323 0.0 0.0 0.00 0.00 0.00 95 1014.2
20260505023646 6 267 0.0 0.0 0.00 0.00 0.00 95 1014.2
20260505022921 6 277 0.0 0.0 0.00 0.00 0.00 94 1014.2
20260505022637 6 215 0.0 0.0 0.00 0.00 0.00 94 1014.2
20260505021915 6 215 0.0 0.0 0.00 0.00 0.00 94 1014.2
20260505021415 6 215 0.0 0.0 0.00 0.00 0.00 94 1014.3
20260505020914 6 215 0.0 0.0 0.00 0.00 0.00 94 1014.3
20260505020411 6 177 0.0 0.0 0.00 0.00 0.00 93 1014.2
20260505015912 6 177 0.0 0.0 0.00 0.00 0.00 93 1014.3
20260505015640 6 177 0.0 0.0 0.00 0.00 0.00 93 1014.3
20260505014909 6 177 0.0 0.0 0.00 0.00 0.00 93 1014.3
20260505014403 6 218 0.0 0.0 0.00 0.00 0.00 93 1014.4
20260505014119 6 217 0.0 0.0 0.00 0.00 0.00 93 1014.4
20260505013351 6 217 0.0 0.0 0.00 0.00 0.00 93 1014.5
20260505013105 7 217 0.0 0.0 0.00 0.00 0.00 93 1014.5
20260505012338 7 122 0.0 0.0 0.00 0.00 0.00 93 1014.5
20260505011833 7 253 0.0 0.0 0.00 0.00 0.00 93 1014.6
20260505011549 6 265 0.0 0.0 0.00 0.00 0.00 93 1014.6
20260505010821 6 266 0.0 0.0 0.00 0.00 0.00 93 1014.5
20260505010315 6 239 0.0 0.0 0.00 0.00 0.00 92 1014.5
20260505005810 6 239 0.0 0.0 0.00 0.00 0.00 92 1014.6
20260505005311 6 239 0.0 0.0 0.00 0.00 0.00 92 1014.6
20260505004809 6 239 0.0 0.0 0.00 0.00 0.00 92 1014.7
20260505004307 6 238 0.0 0.0 0.00 0.00 0.00 92 1014.8
20260505004259 7 239 0.0 0.0 0.00 0.00 0.00 92 1014.8
20260505003305 7 239 0.0 0.0 0.00 0.00 0.00 91 1014.8
20260505002803 7 239 0.0 0.0 0.00 0.00 0.00 91 1014.8
20260505002304 7 239 0.0 0.0 0.00 0.00 0.00 92 1014.9
20260505001802 7 240 0.0 0.0 0.00 0.00 0.00 91 1014.9
20260505001301 7 239 0.0 0.0 0.00 0.00 0.00 91 1014.9
20260505001018 7 226 0.0 0.0 0.00 0.00 0.00 91 1014.9
20260505000259 7 226 0.0 0.0 0.00 0.00 0.00 91 1014.9
20260505000107 7 226 0.0 0.0 0.00 0.00 0.00 91 1014.9
20260504235259 7 226 0.0 0.0 0.00 0.00 0.00 90 1015.0
20260504234759 7 226 0.0 0.0 0.00 0.00 0.00 90 1014.9
20260504234257 7 226 0.0 0.0 0.00 0.00 0.00 90 1015.0
20260504234023 7 225 0.0 0.0 0.00 0.00 0.00 89 1015.0
20260504233252 8 236 0.0 0.0 0.00 0.00 0.00 89 1015.0
20260504232753 8 239 0.0 0.0 0.00 0.00 0.00 89 1015.1
20260504232520 8 187 0.0 0.0 0.00 0.00 0.00 89 1015.0
20260504231755 8 187 0.0 0.0 0.00 0.00 0.00 89 1015.0
20260504231252 8 8 0.0 0.0 0.00 0.00 0.00 89 1014.9
20260504230751 8 224 0.0 0.0 0.00 0.00 0.00 89 1015.0
20260504230253 8 224 0.0 0.0 0.00 0.00 0.00 89 1015.0
20260504225751 8 335 0.0 0.0 0.00 0.00 0.00 89 1015.0
20260504225251 7 274 0.0 0.0 0.00 0.00 0.00 89 1015.0
20260504224746 7 253 0.0 0.0 0.00 0.00 0.00 89 1014.9
20260504224245 7 233 0.0 0.0 0.00 0.00 0.00 89 1015.0
20260504223741 7 233 0.0 0.0 0.00 0.00 0.00 88 1015.1
20260504223241 7 233 0.0 0.0 0.00 0.00 0.00 88 1015.1
20260504222741 7 233 0.0 0.0 0.00 0.00 0.00 88 1015.2
20260504222239 7 233 0.0 0.0 0.00 0.00 0.00 88 1015.2
20260504221737 8 233 0.0 0.0 0.00 0.00 0.00 87 1015.2
20260504221235 8 232 0.0 0.0 0.00 0.00 0.00 87 1015.2
20260504220736 8 233 0.0 0.0 0.00 0.00 0.00 86 1015.3
20260504220232 8 233 0.0 0.0 0.00 0.00 0.00 86 1015.3
20260504215732 8 233 0.0 0.0 0.00 0.00 0.00 86 1015.3
20260504215234 8 240 0.0 0.0 0.00 0.00 0.00 86 1015.3
20260504214732 8 242 0.0 0.0 0.00 0.00 0.00 86 1015.2
20260504214227 8 243 0.0 0.0 0.00 0.00 0.00 86 1015.3
20260504213722 8 236 0.0 0.0 0.00 0.00 0.00 85 1015.3
20260504213224 8 252 0.0 0.0 0.00 0.00 0.00 84 1015.3
20260504212721 8 245 0.0 0.0 0.00 0.00 0.00 84 1015.3
20260504212219 8 245 0.0 0.0 0.00 0.00 0.00 83 1015.3
20260504211718 8 245 0.0 0.0 0.00 0.00 0.00 83 1015.3
20260504211214 8 245 0.0 0.0 0.00 0.00 0.00 83 1015.3
20260504210715 9 244 0.0 0.0 0.00 0.00 0.00 82 1015.3
20260504210435 9 245 0.0 0.0 0.00 0.00 0.00 83 1015.3
20260504205714 9 243 0.0 0.0 0.00 0.00 0.00 83 1015.4
20260504205214 9 315 0.0 0.0 0.00 0.00 0.00 83 1015.3
20260504204713 9 297 0.0 0.0 0.00 0.00 0.00 83 1015.3
20260504204211 9 333 0.0 0.0 0.00 0.00 0.00 82 1015.3
20260504203933 9 4 0.0 0.0 0.00 0.00 0.00 82 1015.2
20260504203210 10 255 0.0 0.0 0.00 0.00 0.00 82 1015.3
20260504202711 10 244 0.0 0.0 0.00 0.00 0.00 82 1015.2
20260504202211 10 62 0.0 0.0 0.00 0.00 0.00 82 1015.1
20260504201712 10 246 0.0 0.0 0.00 0.00 0.00 81 1015.1
20260504201211 10 256 0.0 0.0 0.00 0.00 0.00 81 1015.1